Home > Weather > Antioch > Past weeks

Flag for U.S.A. Weather for the Past 2 Weeks in Antioch, California, U.S.A.

Now
68 °F

Sunny.


Feels Like: 68 °F
Forecast: 43 / 67 °F
Wind: 9 mph from Northeast

Location: Buchanan Field

Current Time: Feb 7, 2016 at 2:31:04 PM

Latest Report: Feb 7, 2016 at 12:53 PM


Visibility: 10 mi

Pressure: 30.19 "Hg

Humidity: 45%

Dew point: 46 °F

Location of AntiochLocation

Historic Weather in Antioch — Graph

°F

Antioch Temperature Yesterday

Maximum temperature yesterday: 65 °F (at 2:53 PM)
Minimum temperature yesterday: 39 °F (at 5:53 AM)
Average temperature yesterday: 51 °F

High & Low Weather Summary for the Past Weeks

 TemperatureHumidityPressure
High68 °F (Feb 7, 12:53 PM)93% (Jan 26, 7:53 AM)30.45 "Hg (Jan 26, 7:53 AM)
Low37 °F (Feb 5, 6:53 AM)27% (Feb 1, 2:53 PM)29.70 "Hg (Jan 31, 2:53 PM)
Average51 °F70%30.20 "Hg
* Reported Jan 23 12:53 PM — Feb 7 12:53 PM, Antioch, Weather by CustomWeather, © 2016

Note: Actual official high and low records may vary slightly from our data, if they occured in-between our weather recording intervals... More about our weather records

Advertising

Antioch Weather History for the Previous 24 Hours

 ConditionsComfort  
Time TempWeatherWind HumidityBarometerVisibility
12:53 PM
Sun, Feb 7
68 °FSunny.9 mph45%30.19 "Hg10 mi
11:53 AM65 °FSunny.9 mph47%30.22 "Hg10 mi
10:53 AM62 °FSunny.7 mph50%30.25 "Hg10 mi
9:53 AM58 °FSunny.3 mph58%30.27 "Hg10 mi
8:53 AM56 °FSunny.7 mph60%30.27 "Hg10 mi
7:53 AM44 °FSunny.No wind82%30.26 "Hg10 mi
6:53 AM42 °FClear.No wind82%30.25 "Hg10 mi
5:53 AM43 °FClear.No wind82%30.24 "Hg10 mi
4:53 AM44 °FClear.No wind82%30.24 "Hg10 mi
3:53 AM44 °FClear.No wind79%30.24 "Hg10 mi
2:53 AM46 °FClear.5 mph79%30.25 "Hg10 mi
1:53 AM48 °FClear.No wind77%30.27 "Hg10 mi
12:53 AM48 °FClear.6 mph77%30.27 "Hg10 mi
11:53 PM
Sat, Feb 6
48 °FClear.5 mph80%30.29 "Hg10 mi
10:53 PM48 °FClear.3 mph80%30.29 "Hg10 mi
9:53 PM50 °FClear.3 mph74%30.30 "Hg10 mi
8:53 PM51 °FClear.No wind74%30.29 "Hg10 mi
7:53 PM54 °FClear.No wind69%30.28 "Hg10 mi
6:53 PM57 °FClear.No wind62%30.28 "Hg10 mi
5:53 PM61 °FClear.3 mph52%30.27 "Hg10 mi
4:53 PM64 °FSunny.5 mph49%30.27 "Hg10 mi
3:53 PM65 °FSunny.6 mph44%30.28 "Hg10 mi
2:53 PM65 °FScattered clouds.6 mph45%30.30 "Hg10 mi
Weather by CustomWeather, © 2016

See weather overviewHow to use our weather pages